| time (UTC) | temp F | wind direction | speed MPH | gust MPH | rain 1hr in | rain 24hr in | rain mn in | humidity % | barometer mb |
| 20260504201531 | 64 | 347 | 6.0 | 13.0 | 0.00 | 0.00 | 0.00 | 31 | 1008.9 |
| 20260504200030 | 64 | 270 | 4.0 | 10.0 | 0.00 | 0.00 | 0.00 | 26 | 1008.5 |
| 20260504194537 | 64 | 68 | 4.0 | 8.0 | 0.00 | 0.00 | 0.00 | 26 | 1008.6 |
| 20260504193027 | 64 | 70 | 3.0 | 6.0 | 0.00 | 0.00 | 0.00 | 30 | 1008.7 |
| 20260504191535 | 65 | 44 | 2.0 | 6.0 | 0.00 | 0.00 | 0.00 | 28 | 1009.1 |
| 20260504190023 | 64 | 6 | 2.0 | 8.0 | 0.00 | 0.00 | 0.00 | 30 | 1009.3 |
| 20260504184521 | 64 | 249 | 5.0 | 7.0 | 0.00 | 0.00 | 0.00 | 29 | 1009.4 |
| 20260504183019 | 64 | 240 | 1.0 | 8.0 | 0.00 | 0.00 | 0.00 | 27 | 1009.6 |
| 20260504181518 | 64 | 242 | 2.0 | 6.0 | 0.00 | 0.00 | 0.00 | 31 | 1009.8 |
| 20260504180019 | 63 | 141 | 3.0 | 5.0 | 0.00 | 0.00 | 0.00 | 29 | 1009.9 |
| 20260504174510 | 61 | 134 | 1.0 | 3.0 | 0.00 | 0.00 | 0.00 | 44 | 1010.0 |
| 20260504173006 | 58 | 235 | 2.0 | 6.0 | 0.00 | 0.00 | 0.00 | 52 | 1010.2 |
| 20260504171502 | 57 | 179 | 3.0 | 7.0 | 0.00 | 0.00 | 0.00 | 53 | 1010.3 |
| 20260504100111 | 39 | 38 | 0.0 | 1.0 | 0.00 | 0.00 | 0.00 | 67 | 1011.5 |
| 20260504081551 | 41 | 137 | 0.0 | 1.0 | 0.00 | 0.00 | 0.00 | 65 | 1011.8 |
| 20260504044526 | 51 | 134 | 3.0 | 5.0 | 0.00 | 0.00 | 0.00 | 45 | 1012.5 |
| 20260504043027 | 54 | 72 | 4.0 | 6.0 | 0.00 | 0.00 | 0.00 | 39 | 1012.5 |
| 20260504041525 | 53 | 65 | 7.0 | 7.0 | 0.00 | 0.00 | 0.00 | 40 | 1012.5 |
| 20260504040039 | 55 | 70 | 5.0 | 7.0 | 0.00 | 0.00 | 0.00 | 36 | 1012.5 |
| 20260504034525 | 56 | 91 | 5.0 | 7.0 | 0.00 | 0.00 | 0.00 | 35 | 1012.4 |
| 20260504033023 | 56 | 86 | 5.0 | 7.0 | 0.00 | 0.00 | 0.00 | 34 | 1012.4 |
| 20260504031523 | 56 | 63 | 6.0 | 7.0 | 0.00 | 0.00 | 0.00 | 33 | 1012.2 |
| 20260504030022 | 57 | 91 | 2.0 | 6.0 | 0.00 | 0.00 | 0.00 | 32 | 1012.0 |
| 20260504024521 | 57 | 136 | 4.0 | 6.0 | 0.00 | 0.00 | 0.00 | 31 | 1012.0 |
| 20260504023020 | 60 | 115 | 4.0 | 5.0 | 0.00 | 0.00 | 0.00 | 27 | 1011.8 |
| 20260504021520 | 61 | 108 | 3.0 | 4.0 | 0.00 | 0.00 | 0.00 | 27 | 1011.6 |
| 20260504020019 | 63 | 271 | 0.0 | 5.0 | 0.00 | 0.00 | 0.00 | 26 | 1011.7 |
| 20260504014524 | 63 | 278 | 7.0 | 11.0 | 0.00 | 0.00 | 0.00 | 25 | 1011.7 |
| 20260504013019 | 63 | 291 | 12.0 | 14.0 | 0.00 | 0.00 | 0.00 | 24 | 1011.8 |
| 20260504011516 | 64 | 261 | 6.0 | 12.0 | 0.00 | 0.00 | 0.00 | 29 | 1011.9 |
| 20260504010015 | 64 | 273 | 9.0 | 15.0 | 0.00 | 0.00 | 0.00 | 28 | 1011.8 |
| 20260504004514 | 65 | 257 | 12.0 | 16.0 | 0.00 | 0.00 | 0.00 | 22 | 1012.0 |
| 20260504003012 | 65 | 255 | 9.0 | 16.0 | 0.00 | 0.00 | 0.00 | 24 | 1012.0 |
| 20260504001511 | 66 | 282 | 13.0 | 16.0 | 0.00 | 0.00 | 0.00 | 24 | 1012.1 |
| 20260504000011 | 65 | 261 | 9.0 | 17.0 | 0.00 | 0.00 | 0.00 | 22 | 1012.2 |
| 20260503234509 | 67 | 293 | 4.0 | 17.0 | 0.00 | 0.00 | 0.00 | 20 | 1012.3 |
| 20260503233007 | 65 | 280 | 10.0 | 17.0 | 0.00 | 0.00 | 0.00 | 19 | 1012.3 |
| 20260503231507 | 67 | 283 | 16.0 | 25.0 | 0.00 | 0.00 | 0.00 | 20 | 1012.3 |
| 20260503230006 | 66 | 295 | 7.0 | 20.0 | 0.00 | 0.00 | 0.00 | 20 | 1012.5 |
| 20260503224507 | 66 | 238 | 16.0 | 25.0 | 0.00 | 0.00 | 0.00 | 19 | 1012.6 |
| 20260503223002 | 66 | 261 | 10.0 | 24.0 | 0.00 | 0.00 | 0.00 | 18 | 1012.7 |
| 20260503221501 | 66 | 241 | 17.0 | 23.0 | 0.00 | 0.00 | 0.00 | 21 | 1012.8 |
| 20260503220059 | 66 | 243 | 12.0 | 24.0 | 0.00 | 0.00 | 0.00 | 22 | 1013.1 |
| 20260503214557 | 66 | 266 | 15.0 | 21.0 | 0.00 | 0.00 | 0.00 | 20 | 1013.2 |
| 20260503213056 | 65 | 269 | 11.0 | 17.0 | 0.00 | 0.00 | 0.00 | 22 | 1013.5 |
| 20260503211555 | 64 | 276 | 8.0 | 10.0 | 0.00 | 0.00 | 0.00 | 21 | 1013.7 |
| 20260503210054 | 65 | 292 | 9.0 | 22.0 | 0.00 | 0.00 | 0.00 | 21 | 1013.8 |
| 20260503204552 | 65 | 241 | 10.0 | 17.0 | 0.00 | 0.00 | 0.00 | 24 | 1014.1 |
| 20260503203051 | 66 | 292 | 14.0 | 21.0 | 0.00 | 0.00 | 0.00 | 19 | 1014.1 |